Location: Bern�tre
(50.1974°N, 2.0915°E)
Time: 08:59:00
(UTC+00:00)

Cosmos 2082 Rocket - Pass Details

Date: 18 September 2020
Orbit: 834 x 853 km, 71.0° (Epoch: 24 October)

Event Time Altitude Azimuth Distance (km) Brightness Sun altitude
Rises 22:22:25 0° 327° (NNW) 3,393 6.3 -35.4°
Reaches altitude 10° 22:24:56 10° 322° (NW) 2,456 5.3 -35.6°
Enters shadow 22:28:05 31° 302° (WNW) 1,421 3.7 -35.8°
